2019,02,18,00,00,00,73.7,,,,,,,,,,,,,,
2019,02,18,00,01,00,75.4,,,,,,,,,,,,,,
2019,02,18,00,02,00,83.6,,,,,,,,,,,,,,
2019,02,18,00,03,00,91.6,,,,,,,,,,,,,,
2019,02,18,00,04,00,81.3,,,,,,,,,,,,,,
2019,02,18,00,05,00,75.0,,,,,,,,,,,,,,
2019,02,18,00,06,00,74.8,,,,,,,,,,,,,,
2019,02,18,00,07,00,73.8,,,,,,,,,,,,,,
2019,02,18,00,08,00,72.8,,,,,,,,,,,,,,
2019,02,18,00,09,00,76.7,,,,,,,,,,,,,,
2019,02,18,00,10,00,75.4,,,,,,,,,,,,,,
2019,02,18,00,11,00,75.6,,,,,,,,,,,,,,
2019,02,18,00,12,00,73.2,,,,,,,,,,,,,,
2019,02,18,00,13,00,76.4,,,,,,,,,,,,,,
2019,02,18,00,14,00,78.9,,,,,,,,,,,,,,
2019,02,18,00,15,00,77.0,,,,,,,,,,,,,,
2019,02,18,00,16,00,79.8,,,,,,,,,,,,,,
2019,02,18,00,17,00,80.5,,,,,,,,,,,,,,
2019,02,18,00,18,00,80.9,,,,,,,,,,,,,,
2019,02,18,00,19,00,79.9,,,,,,,,,,,,,,
2019,02,18,00,20,00,77.0,,,,,,,,,,,,,,
2019,02,18,00,21,00,77.3,,,,,,,,,,,,,,
2019,02,18,00,22,00,78.8,,,,,,,,,,,,,,
2019,02,18,00,23,00,80.2,,,,,,,,,,,,,,
2019,02,18,00,24,00,79.8,,,,,,,,,,,,,,
2019,02,18,00,25,00,80.8,,,,,,,,,,,,,,
2019,02,18,00,26,00,79.2,,,,,,,,,,,,,,
2019,02,18,00,27,00,79.0,,,,,,,,,,,,,,
2019,02,18,00,28,00,83.0,,,,,,,,,,,,,,
2019,02,18,00,29,00,82.8,,,,,,,,,,,,,,
2019,02,18,00,30,00,80.7,,,,,,,,,,,,,,
2019,02,18,00,31,00,89.9,,,,,,,,,,,,,,
2019,02,18,00,32,00,81.3,,,,,,,,,,,,,,
2019,02,18,00,33,00,82.7,,,,,,,,,,,,,,
2019,02,18,00,34,00,102.6,,,,,,,,,,,,,,
2019,02,18,00,35,00,99.3,,,,,,,,,,,,,,
2019,02,18,00,36,00,94.0,,,,,,,,,,,,,,
2019,02,18,00,37,00,86.0,,,,,,,,,,,,,,
2019,02,18,00,38,00,82.2,,,,,,,,,,,,,,
2019,02,18,00,39,00,78.7,,,,,,,,,,,,,,
2019,02,18,00,40,00,75.2,,,,,,,,,,,,,,
2019,02,18,00,41,00,70.0,,,,,,,,,,,,,,
2019,02,18,00,42,00,66.4,,,,,,,,,,,,,,
2019,02,18,00,43,00,67.4,,,,,,,,,,,,,,
2019,02,18,00,44,00,69.6,,,,,,,,,,,,,,
2019,02,18,00,45,00,68.6,,,,,,,,,,,,,,
2019,02,18,00,46,00,71.5,,,,,,,,,,,,,,
2019,02,18,00,47,00,69.9,,,,,,,,,,,,,,
2019,02,18,00,48,00,70.4,,,,,,,,,,,,,,
2019,02,18,00,49,00,69.1,,,,,,,,,,,,,,
2019,02,18,00,50,00,62.7,,,,,,,,,,,,,,
2019,02,18,00,51,00,60.6,,,,,,,,,,,,,,
2019,02,18,00,52,00,59.8,,,,,,,,,,,,,,
2019,02,18,00,53,00,58.0,,,,,,,,,,,,,,
2019,02,18,00,54,00,59.7,,,,,,,,,,,,,,
2019,02,18,00,55,00,58.1,,,,,,,,,,,,,,
2019,02,18,00,56,00,58.9,,,,,,,,,,,,,,
2019,02,18,00,57,00,59.9,,,,,,,,,,,,,,
2019,02,18,00,58,00,61.4,,,,,,,,,,,,,,
2019,02,18,00,59,00,56.9,,,,,,,,,,,,,,
2019,02,18,01,00,00,59.4,,,,,,,,,,,,,,
2019,02,18,01,01,00,62.4,,,,,,,,,,,,,,
2019,02,18,01,02,00,60.9,,,,,,,,,,,,,,
2019,02,18,01,03,00,60.5,,,,,,,,,,,,,,
2019,02,18,01,04,00,57.6,,,,,,,,,,,,,,
2019,02,18,01,05,00,58.2,,,,,,,,,,,,,,
2019,02,18,01,06,00,58.9,,,,,,,,,,,,,,
2019,02,18,01,07,00,59.5,,,,,,,,,,,,,,
2019,02,18,01,08,00,55.8,,,,,,,,,,,,,,
2019,02,18,01,09,00,60.1,,,,,,,,,,,,,,
2019,02,18,01,10,00,56.8,,,,,,,,,,,,,,
2019,02,18,01,11,00,58.1,,,,,,,,,,,,,,
2019,02,18,01,12,00,62.1,,,,,,,,,,,,,,
2019,02,18,01,13,00,62.3,,,,,,,,,,,,,,
2019,02,18,01,14,00,60.2,,,,,,,,,,,,,,
2019,02,18,01,15,00,62.1,,,,,,,,,,,,,,
2019,02,18,01,16,00,63.9,,,,,,,,,,,,,,
2019,02,18,01,17,00,61.1,,,,,,,,,,,,,,
2019,02,18,01,18,00,57.1,,,,,,,,,,,,,,
2019,02,18,01,19,00,53.7,,,,,,,,,,,,,,
2019,02,18,01,20,00,54.7,,,,,,,,,,,,,,
2019,02,18,01,21,00,55.4,,,,,,,,,,,,,,
2019,02,18,01,22,00,62.8,,,,,,,,,,,,,,
2019,02,18,01,23,00,64.0,,,,,,,,,,,,,,
2019,02,18,01,24,00,61.4,,,,,,,,,,,,,,
2019,02,18,01,25,00,60.2,,,,,,,,,,,,,,
2019,02,18,01,26,00,63.6,,,,,,,,,,,,,,
2019,02,18,01,27,00,60.0,,,,,,,,,,,,,,
2019,02,18,01,28,00,60.4,,,,,,,,,,,,,,
2019,02,18,01,29,00,63.2,,,,,,,,,,,,,,
2019,02,18,01,30,00,60.2,,,,,,,,,,,,,,
2019,02,18,01,31,00,61.4,,,,,,,,,,,,,,
2019,02,18,01,32,00,59.5,,,,,,,,,,,,,,
2019,02,18,01,33,00,62.3,,,,,,,,,,,,,,
2019,02,18,01,34,00,64.3,,,,,,,,,,,,,,
2019,02,18,01,35,00,63.5,,,,,,,,,,,,,,
2019,02,18,01,36,00,64.6,,,,,,,,,,,,,,
2019,02,18,01,37,00,61.8,,,,,,,,,,,,,,
2019,02,18,01,38,00,63.4,,,,,,,,,,,,,,
2019,02,18,01,39,00,61.3,,,,,,,,,,,,,,
2019,02,18,01,40,00,64.6,,,,,,,,,,,,,,
2019,02,18,01,41,00,66.1,,,,,,,,,,,,,,
2019,02,18,01,42,00,68.0,,,,,,,,,,,,,,
2019,02,18,01,43,00,69.2,,,,,,,,,,,,,,
2019,02,18,01,44,00,71.0,,,,,,,,,,,,,,
2019,02,18,01,45,00,70.6,,,,,,,,,,,,,,
2019,02,18,01,46,00,69.4,,,,,,,,,,,,,,
2019,02,18,01,47,00,67.0,,,,,,,,,,,,,,
2019,02,18,01,48,00,66.7,,,,,,,,,,,,,,
2019,02,18,01,49,00,69.8,,,,,,,,,,,,,,
2019,02,18,01,50,00,69.9,,,,,,,,,,,,,,
2019,02,18,01,51,00,69.9,,,,,,,,,,,,,,
2019,02,18,01,52,00,68.5,,,,,,,,,,,,,,
2019,02,18,01,53,00,65.1,,,,,,,,,,,,,,
2019,02,18,01,54,00,63.2,,,,,,,,,,,,,,
2019,02,18,01,55,00,63.7,,,,,,,,,,,,,,
2019,02,18,01,56,00,62.4,,,,,,,,,,,,,,
2019,02,18,01,57,00,63.7,,,,,,,,,,,,,,
2019,02,18,01,58,00,60.9,,,,,,,,,,,,,,
2019,02,18,01,59,00,64.3,,,,,,,,,,,,,,
2019,02,18,02,00,00,67.2,,,,,,,,,,,,,,
2019,02,18,02,01,00,67.2,,,,,,,,,,,,,,
2019,02,18,02,02,00,58.7,,,,,,,,,,,,,,
2019,02,18,02,03,00,60.4,,,,,,,,,,,,,,
2019,02,18,02,04,00,57.9,,,,,,,,,,,,,,
2019,02,18,02,05,00,59.0,,,,,,,,,,,,,,
2019,02,18,02,06,00,57.3,,,,,,,,,,,,,,
2019,02,18,02,07,00,61.2,,,,,,,,,,,,,,
2019,02,18,02,08,00,61.4,,,,,,,,,,,,,,
2019,02,18,02,09,00,60.8,,,,,,,,,,,,,,
2019,02,18,02,10,00,58.1,,,,,,,,,,,,,,
2019,02,18,02,11,00,57.7,,,,,,,,,,,,,,
2019,02,18,02,12,00,59.8,,,,,,,,,,,,,,
2019,02,18,02,13,00,57.0,,,,,,,,,,,,,,
2019,02,18,02,14,00,59.0,,,,,,,,,,,,,,
2019,02,18,02,15,00,55.2,,,,,,,,,,,,,,
2019,02,18,02,16,00,56.4,,,,,,,,,,,,,,
2019,02,18,02,17,00,53.1,,,,,,,,,,,,,,
2019,02,18,02,18,00,47.2,,,,,,,,,,,,,,
2019,02,18,02,19,00,45.6,,,,,,,,,,,,,,
2019,02,18,02,20,00,47.9,,,,,,,,,,,,,,
2019,02,18,02,21,00,55.6,,,,,,,,,,,,,,
2019,02,18,02,22,00,59.1,,,,,,,,,,,,,,
2019,02,18,02,23,00,60.3,,,,,,,,,,,,,,
2019,02,18,02,24,00,64.5,,,,,,,,,,,,,,
2019,02,18,02,25,00,64.7,,,,,,,,,,,,,,
2019,02,18,02,26,00,72.5,,,,,,,,,,,,,,
2019,02,18,02,27,00,65.6,,,,,,,,,,,,,,
2019,02,18,02,28,00,69.8,,,,,,,,,,,,,,
2019,02,18,02,29,00,65.6,,,,,,,,,,,,,,
2019,02,18,02,30,00,65.0,,,,,,,,,,,,,,
2019,02,18,02,31,00,54.1,,,,,,,,,,,,,,
2019,02,18,02,32,00,54.5,,,,,,,,,,,,,,
2019,02,18,02,33,00,58.9,,,,,,,,,,,,,,
2019,02,18,02,34,00,56.0,,,,,,,,,,,,,,
2019,02,18,02,35,00,63.2,,,,,,,,,,,,,,
2019,02,18,02,36,00,60.5,,,,,,,,,,,,,,
2019,02,18,02,37,00,60.3,,,,,,,,,,,,,,
2019,02,18,02,38,00,62.1,,,,,,,,,,,,,,
2019,02,18,02,39,00,65.3,,,,,,,,,,,,,,
2019,02,18,02,40,00,60.9,,,,,,,,,,,,,,
2019,02,18,02,41,00,61.7,,,,,,,,,,,,,,
2019,02,18,02,42,00,64.2,,,,,,,,,,,,,,
2019,02,18,02,43,00,60.2,,,,,,,,,,,,,,
2019,02,18,02,44,00,54.4,,,,,,,,,,,,,,
2019,02,18,02,45,00,57.9,,,,,,,,,,,,,,
2019,02,18,02,46,00,61.1,,,,,,,,,,,,,,
2019,02,18,02,47,00,60.6,,,,,,,,,,,,,,
2019,02,18,02,48,00,50.9,,,,,,,,,,,,,,
2019,02,18,02,49,00,46.9,,,,,,,,,,,,,,
2019,02,18,02,50,00,51.4,,,,,,,,,,,,,,
2019,02,18,02,51,00,58.0,,,,,,,,,,,,,,
2019,02,18,02,52,00,59.1,,,,,,,,,,,,,,
2019,02,18,02,53,00,56.3,,,,,,,,,,,,,,
2019,02,18,02,54,00,55.5,,,,,,,,,,,,,,
2019,02,18,02,55,00,57.0,,,,,,,,,,,,,,
2019,02,18,02,56,00,60.1,,,,,,,,,,,,,,
2019,02,18,02,57,00,58.6,,,,,,,,,,,,,,
2019,02,18,02,58,00,59.0,,,,,,,,,,,,,,
2019,02,18,02,59,00,59.2,,,,,,,,,,,,,,
2019,02,18,03,00,00,56.7,,,,,,,,,,,,,,
2019,02,18,03,01,00,54.4,,,,,,,,,,,,,,
2019,02,18,03,02,00,56.1,,,,,,,,,,,,,,
2019,02,18,03,03,00,51.3,,,,,,,,,,,,,,
2019,02,18,03,04,00,46.2,,,,,,,,,,,,,,
2019,02,18,03,05,00,49.3,,,,,,,,,,,,,,
2019,02,18,03,06,00,52.8,,,,,,,,,,,,,,
2019,02,18,03,07,00,57.1,,,,,,,,,,,,,,
2019,02,18,03,08,00,56.5,,,,,,,,,,,,,,
2019,02,18,03,09,00,56.9,,,,,,,,,,,,,,
2019,02,18,03,10,00,55.3,,,,,,,,,,,,,,
2019,02,18,03,11,00,53.4,,,,,,,,,,,,,,
2019,02,18,03,12,00,46.2,,,,,,,,,,,,,,
2019,02,18,03,13,00,42.5,,,,,,,,,,,,,,
2019,02,18,03,14,00,43.3,,,,,,,,,,,,,,
2019,02,18,03,15,00,51.8,,,,,,,,,,,,,,
2019,02,18,03,16,00,49.4,,,,,,,,,,,,,,
2019,02,18,03,17,00,49.0,,,,,,,,,,,,,,
2019,02,18,03,18,00,48.6,,,,,,,,,,,,,,
2019,02,18,03,19,00,52.3,,,,,,,,,,,,,,
2019,02,18,03,20,00,52.3,,,,,,,,,,,,,,
2019,02,18,03,21,00,53.0,,,,,,,,,,,,,,
2019,02,18,03,22,00,46.8,,,,,,,,,,,,,,
2019,02,18,03,23,00,43.2,,,,,,,,,,,,,,
2019,02,18,03,24,00,40.9,,,,,,,,,,,,,,
2019,02,18,03,25,00,44.7,,,,,,,,,,,,,,
2019,02,18,03,26,00,56.4,,,,,,,,,,,,,,
2019,02,18,03,27,00,57.7,,,,,,,,,,,,,,
2019,02,18,03,28,00,57.2,,,,,,,,,,,,,,
2019,02,18,03,29,00,59.3,,,,,,,,,,,,,,
2019,02,18,03,30,00,59.0,,,,,,,,,,,,,,
2019,02,18,03,31,00,59.9,,,,,,,,,,,,,,
2019,02,18,03,32,00,50.8,,,,,,,,,,,,,,
2019,02,18,03,33,00,47.3,,,,,,,,,,,,,,
2019,02,18,03,34,00,46.8,,,,,,,,,,,,,,
2019,02,18,03,35,00,42.7,,,,,,,,,,,,,,
2019,02,18,03,36,00,37.8,,,,,,,,,,,,,,
2019,02,18,03,37,00,37.8,,,,,,,,,,,,,,
2019,02,18,03,38,00,37.8,,,,,,,,,,,,,,
2019,02,18,03,39,00,39.7,,,,,,,,,,,,,,
2019,02,18,03,40,00,41.9,,,,,,,,,,,,,,
2019,02,18,03,41,00,40.5,,,,,,,,,,,,,,
2019,02,18,03,42,00,38.2,,,,,,,,,,,,,,
2019,02,18,03,43,00,38.4,,,,,,,,,,,,,,
2019,02,18,03,44,00,41.0,,,,,,,,,,,,,,
2019,02,18,03,45,00,45.1,,,,,,,,,,,,,,
2019,02,18,03,46,00,40.4,,,,,,,,,,,,,,
2019,02,18,03,47,00,46.0,,,,,,,,,,,,,,
2019,02,18,03,48,00,48.9,,,,,,,,,,,,,,
2019,02,18,03,49,00,57.3,,,,,,,,,,,,,,
2019,02,18,03,50,00,57.7,,,,,,,,,,,,,,
2019,02,18,03,51,00,55.7,,,,,,,,,,,,,,
2019,02,18,03,52,00,51.8,,,,,,,,,,,,,,
2019,02,18,03,53,00,58.5,,,,,,,,,,,,,,
2019,02,18,03,54,00,54.2,,,,,,,,,,,,,,
2019,02,18,03,55,00,45.5,,,,,,,,,,,,,,
2019,02,18,03,56,00,40.2,,,,,,,,,,,,,,
2019,02,18,03,57,00,40.1,,,,,,,,,,,,,,
2019,02,18,03,58,00,49.5,,,,,,,,,,,,,,
2019,02,18,03,59,00,49.8,,,,,,,,,,,,,,
2019,02,18,04,00,00,47.5,,,,,,,,,,,,,,
2019,02,18,04,01,00,52.8,,,,,,,,,,,,,,
2019,02,18,04,02,00,45.2,,,,,,,,,,,,,,
2019,02,18,04,03,00,42.7,,,,,,,,,,,,,,
2019,02,18,04,04,00,43.7,,,,,,,,,,,,,,
2019,02,18,04,05,00,43.8,,,,,,,,,,,,,,
2019,02,18,04,06,00,45.2,,,,,,,,,,,,,,
2019,02,18,04,07,00,52.0,,,,,,,,,,,,,,
2019,02,18,04,08,00,53.0,,,,,,,,,,,,,,
2019,02,18,04,09,00,56.1,,,,,,,,,,,,,,
2019,02,18,04,10,00,58.1,,,,,,,,,,,,,,
2019,02,18,04,11,00,49.1,,,,,,,,,,,,,,
2019,02,18,04,12,00,48.2,,,,,,,,,,,,,,
2019,02,18,04,13,00,42.0,,,,,,,,,,,,,,
2019,02,18,04,14,00,39.1,,,,,,,,,,,,,,
2019,02,18,04,15,00,38.1,,,,,,,,,,,,,,
2019,02,18,04,16,00,37.8,,,,,,,,,,,,,,
2019,02,18,04,17,00,39.2,,,,,,,,,,,,,,
2019,02,18,04,18,00,41.0,,,,,,,,,,,,,,
2019,02,18,04,19,00,46.6,,,,,,,,,,,,,,
2019,02,18,04,20,00,43.8,,,,,,,,,,,,,,
2019,02,18,04,21,00,59.7,,,,,,,,,,,,,,
2019,02,18,04,22,00,47.9,,,,,,,,,,,,,,
2019,02,18,04,23,00,41.6,,,,,,,,,,,,,,
2019,02,18,04,24,00,38.4,,,,,,,,,,,,,,
2019,02,18,04,25,00,38.3,,,,,,,,,,,,,,
2019,02,18,04,26,00,44.4,,,,,,,,,,,,,,
2019,02,18,04,27,00,51.4,,,,,,,,,,,,,,
2019,02,18,04,28,00,46.2,,,,,,,,,,,,,,
2019,02,18,04,29,00,43.8,,,,,,,,,,,,,,
2019,02,18,04,30,00,45.2,,,,,,,,,,,,,,
2019,02,18,04,31,00,42.6,,,,,,,,,,,,,,
2019,02,18,04,32,00,45.7,,,,,,,,,,,,,,
2019,02,18,04,33,00,43.0,,,,,,,,,,,,,,
2019,02,18,04,34,00,47.1,,,,,,,,,,,,,,
2019,02,18,04,35,00,51.5,,,,,,,,,,,,,,
2019,02,18,04,36,00,60.1,,,,,,,,,,,,,,
2019,02,18,04,37,00,61.7,,,,,,,,,,,,,,
2019,02,18,04,38,00,68.7,,,,,,,,,,,,,,
2019,02,18,04,39,00,70.0,,,,,,,,,,,,,,
2019,02,18,04,40,00,76.3,,,,,,,,,,,,,,
2019,02,18,04,41,00,75.0,,,,,,,,,,,,,,
2019,02,18,04,42,00,67.8,,,,,,,,,,,,,,
2019,02,18,04,43,00,65.2,,,,,,,,,,,,,,
2019,02,18,04,44,00,64.6,,,,,,,,,,,,,,
2019,02,18,04,45,00,68.0,,,,,,,,,,,,,,
2019,02,18,04,46,00,74.8,,,,,,,,,,,,,,
2019,02,18,04,47,00,69.8,,,,,,,,,,,,,,
2019,02,18,04,48,00,68.6,,,,,,,,,,,,,,
2019,02,18,04,49,00,61.2,,,,,,,,,,,,,,
2019,02,18,04,50,00,55.9,,,,,,,,,,,,,,
2019,02,18,04,51,00,58.8,,,,,,,,,,,,,,
2019,02,18,04,52,00,59.6,,,,,,,,,,,,,,
2019,02,18,04,53,00,57.8,,,,,,,,,,,,,,
2019,02,18,04,54,00,51.2,,,,,,,,,,,,,,
2019,02,18,04,55,00,44.5,,,,,,,,,,,,,,
2019,02,18,04,56,00,44.8,,,,,,,,,,,,,,
2019,02,18,04,57,00,49.7,,,,,,,,,,,,,,
2019,02,18,04,58,00,48.1,,,,,,,,,,,,,,
2019,02,18,04,59,00,48.6,,,,,,,,,,,,,,
2019,02,18,05,00,00,61.6,,,,,,,,,,,,,,
2019,02,18,05,01,00,68.4,,,,,,,,,,,,,,
2019,02,18,05,02,00,63.2,,,,,,,,,,,,,,
2019,02,18,05,03,00,62.0,,,,,,,,,,,,,,
2019,02,18,05,04,00,59.1,,,,,,,,,,,,,,
2019,02,18,05,05,00,60.3,,,,,,,,,,,,,,
2019,02,18,05,06,00,51.1,,,,,,,,,,,,,,
2019,02,18,05,07,00,53.7,,,,,,,,,,,,,,
2019,02,18,05,08,00,57.6,,,,,,,,,,,,,,
2019,02,18,05,09,00,60.0,,,,,,,,,,,,,,
2019,02,18,05,10,00,61.0,,,,,,,,,,,,,,
2019,02,18,05,11,00,59.1,,,,,,,,,,,,,,
2019,02,18,05,12,00,55.4,,,,,,,,,,,,,,
2019,02,18,05,13,00,57.2,,,,,,,,,,,,,,
2019,02,18,05,14,00,57.0,,,,,,,,,,,,,,
2019,02,18,05,15,00,59.5,,,,,,,,,,,,,,
2019,02,18,05,16,00,59.9,,,,,,,,,,,,,,
2019,02,18,05,17,00,61.2,,,,,,,,,,,,,,
2019,02,18,05,18,00,57.6,,,,,,,,,,,,,,
2019,02,18,05,19,00,56.5,,,,,,,,,,,,,,
2019,02,18,05,20,00,56.6,,,,,,,,,,,,,,
2019,02,18,05,21,00,55.0,,,,,,,,,,,,,,
2019,02,18,05,22,00,56.6,,,,,,,,,,,,,,
2019,02,18,05,23,00,54.9,,,,,,,,,,,,,,
2019,02,18,05,24,00,56.4,,,,,,,,,,,,,,
2019,02,18,05,25,00,52.9,,,,,,,,,,,,,,
2019,02,18,05,26,00,55.4,,,,,,,,,,,,,,
2019,02,18,05,27,00,55.9,,,,,,,,,,,,,,
2019,02,18,05,28,00,57.3,,,,,,,,,,,,,,
2019,02,18,05,29,00,58.1,,,,,,,,,,,,,,
2019,02,18,05,30,00,59.6,,,,,,,,,,,,,,
2019,02,18,05,31,00,61.5,,,,,,,,,,,,,,
2019,02,18,05,32,00,64.2,,,,,,,,,,,,,,
2019,02,18,05,33,00,65.1,,,,,,,,,,,,,,
2019,02,18,05,34,00,63.3,,,,,,,,,,,,,,
2019,02,18,05,35,00,62.6,,,,,,,,,,,,,,
2019,02,18,05,36,00,61.8,,,,,,,,,,,,,,
2019,02,18,05,37,00,58.3,,,,,,,,,,,,,,
2019,02,18,05,38,00,57.3,,,,,,,,,,,,,,
2019,02,18,05,39,00,57.7,,,,,,,,,,,,,,
2019,02,18,05,40,00,57.8,,,,,,,,,,,,,,
2019,02,18,05,41,00,51.8,,,,,,,,,,,,,,
2019,02,18,05,42,00,50.2,,,,,,,,,,,,,,
2019,02,18,05,43,00,52.8,,,,,,,,,,,,,,
2019,02,18,05,44,00,51.9,,,,,,,,,,,,,,
2019,02,18,05,45,00,53.8,,,,,,,,,,,,,,
2019,02,18,05,46,00,54.0,,,,,,,,,,,,,,
2019,02,18,05,47,00,58.2,,,,,,,,,,,,,,
2019,02,18,05,48,00,60.7,,,,,,,,,,,,,,
2019,02,18,05,49,00,64.4,,,,,,,,,,,,,,
2019,02,18,05,50,00,60.3,,,,,,,,,,,,,,
2019,02,18,05,51,00,61.0,,,,,,,,,,,,,,
2019,02,18,05,52,00,60.2,,,,,,,,,,,,,,
2019,02,18,05,53,00,60.1,,,,,,,,,,,,,,
2019,02,18,05,54,00,58.9,,,,,,,,,,,,,,
2019,02,18,05,55,00,58.9,,,,,,,,,,,,,,
2019,02,18,05,56,00,54.6,,,,,,,,,,,,,,
2019,02,18,05,57,00,57.7,,,,,,,,,,,,,,
2019,02,18,05,58,00,56.7,,,,,,,,,,,,,,
2019,02,18,05,59,00,54.8,,,,,,,,,,,,,,
2019,02,18,06,00,00,54.1,,,,,,,,,,,,,,
2019,02,18,06,01,00,56.2,,,,,,,,,,,,,,
2019,02,18,06,02,00,54.8,,,,,,,,,,,,,,
2019,02,18,06,03,00,55.4,,,,,,,,,,,,,,
2019,02,18,06,04,00,55.9,,,,,,,,,,,,,,
2019,02,18,06,05,00,52.2,,,,,,,,,,,,,,
2019,02,18,06,06,00,44.1,,,,,,,,,,,,,,
2019,02,18,06,07,00,52.2,,,,,,,,,,,,,,
2019,02,18,06,08,00,59.5,,,,,,,,,,,,,,
2019,02,18,06,09,00,52.2,,,,,,,,,,,,,,
2019,02,18,06,10,00,47.2,,,,,,,,,,,,,,
2019,02,18,06,11,00,50.7,,,,,,,,,,,,,,
2019,02,18,06,12,00,50.3,,,,,,,,,,,,,,
2019,02,18,06,13,00,51.5,,,,,,,,,,,,,,
2019,02,18,06,14,00,,,,,,,,,,,,,,,
2019,02,18,06,15,00,,,,,,,,,,,,,,,
2019,02,18,06,16,00,59.3,,,,,,,,,,,,,,
2019,02,18,06,17,00,56.1,,,,,,,,,,,,,,
2019,02,18,06,18,00,56.9,,,,,,,,,,,,,,
2019,02,18,06,19,00,59.0,,,,,,,,,,,,,,
2019,02,18,06,20,00,57.6,,,,,,,,,,,,,,
2019,02,18,06,21,00,56.8,,,,,,,,,,,,,,
2019,02,18,06,22,00,53.4,,,,,,,,,,,,,,
2019,02,18,06,23,00,54.7,,,,,,,,,,,,,,
2019,02,18,06,24,00,54.3,,,,,,,,,,,,,,
2019,02,18,06,25,00,60.6,,,,,,,,,,,,,,
2019,02,18,06,26,00,65.0,,,,,,,,,,,,,,
2019,02,18,06,27,00,62.0,,,,,,,,,,,,,,
2019,02,18,06,28,00,77.3,,,,,,,,,,,,,,
2019,02,18,06,29,00,76.7,,,,,,,,,,,,,,
2019,02,18,06,30,00,71.4,,,,,,,,,,,,,,
2019,02,18,06,31,00,67.4,,,,,,,,,,,,,,
2019,02,18,06,32,00,78.1,,,,,,,,,,,,,,
2019,02,18,06,33,00,85.4,,,,,,,,,,,,,,
2019,02,18,06,34,00,86.3,,,,,,,,,,,,,,
2019,02,18,06,35,00,109.8,,,,,,,,,,,,,,
2019,02,18,06,36,00,144.0,,,,,,,,,,,,,,
2019,02,18,06,37,00,150.4,,,,,,,,,,,,,,
2019,02,18,06,38,00,116.4,,,,,,,,,,,,,,
2019,02,18,06,39,00,90.2,,,,,,,,,,,,,,
2019,02,18,06,40,00,113.4,,,,,,,,,,,,,,
2019,02,18,06,41,00,79.3,,,,,,,,,,,,,,
2019,02,18,06,42,00,80.1,,,,,,,,,,,,,,
2019,02,18,06,43,00,79.8,,,,,,,,,,,,,,
2019,02,18,06,44,00,85.7,,,,,,,,,,,,,,
2019,02,18,06,45,00,143.8,,,,,,,,,,,,,,
2019,02,18,06,46,00,107.3,,,,,,,,,,,,,,
2019,02,18,06,47,00,81.6,,,,,,,,,,,,,,
2019,02,18,06,48,00,74.6,,,,,,,,,,,,,,
2019,02,18,06,49,00,69.4,,,,,,,,,,,,,,
2019,02,18,06,50,00,74.8,,,,,,,,,,,,,,
2019,02,18,06,51,00,80.4,,,,,,,,,,,,,,
2019,02,18,06,52,00,76.5,,,,,,,,,,,,,,
2019,02,18,06,53,00,82.0,,,,,,,,,,,,,,
2019,02,18,06,54,00,68.6,,,,,,,,,,,,,,
2019,02,18,06,55,00,70.9,,,,,,,,,,,,,,
2019,02,18,06,56,00,71.7,,,,,,,,,,,,,,
2019,02,18,06,57,00,64.7,,,,,,,,,,,,,,
2019,02,18,06,58,00,60.7,,,,,,,,,,,,,,
2019,02,18,06,59,00,61.0,,,,,,,,,,,,,,
2019,02,18,07,00,00,67.7,,,,,,,,,,,,,,
2019,02,18,07,01,00,79.5,,,,,,,,,,,,,,
2019,02,18,07,02,00,105.4,,,,,,,,,,,,,,
2019,02,18,07,03,00,87.4,,,,,,,,,,,,,,
2019,02,18,07,04,00,74.4,,,,,,,,,,,,,,
2019,02,18,07,05,00,71.8,,,,,,,,,,,,,,
2019,02,18,07,06,00,84.7,,,,,,,,,,,,,,
2019,02,18,07,07,00,105.3,,,,,,,,,,,,,,
2019,02,18,07,08,00,97.9,,,,,,,,,,,,,,
2019,02,18,07,09,00,89.8,,,,,,,,,,,,,,
2019,02,18,07,10,00,81.7,,,,,,,,,,,,,,
2019,02,18,07,11,00,83.3,,,,,,,,,,,,,,
2019,02,18,07,12,00,84.9,,,,,,,,,,,,,,
2019,02,18,07,13,00,100.4,,,,,,,,,,,,,,
2019,02,18,07,14,00,78.3,,,,,,,,,,,,,,
2019,02,18,07,15,00,73.8,,,,,,,,,,,,,,
2019,02,18,07,16,00,94.9,,,,,,,,,,,,,,
2019,02,18,07,17,00,77.7,,,,,,,,,,,,,,
2019,02,18,07,18,00,76.9,,,,,,,,,,,,,,
2019,02,18,07,19,00,72.1,,,,,,,,,,,,,,
2019,02,18,07,20,00,73.7,,,,,,,,,,,,,,
2019,02,18,07,21,00,76.6,,,,,,,,,,,,,,
2019,02,18,07,22,00,87.2,,,,,,,,,,,,,,
2019,02,18,07,23,00,108.5,,,,,,,,,,,,,,
2019,02,18,07,24,00,108.3,,,,,,,,,,,,,,
2019,02,18,07,25,00,96.1,,,,,,,,,,,,,,
2019,02,18,07,26,00,101.1,,,,,,,,,,,,,,
2019,02,18,07,27,00,104.6,,,,,,,,,,,,,,
2019,02,18,07,28,00,109.6,,,,,,,,,,,,,,
2019,02,18,07,29,00,113.4,,,,,,,,,,,,,,
2019,02,18,07,30,00,113.3,,,,,,,,,,,,,,
2019,02,18,07,31,00,106.7,,,,,,,,,,,,,,
2019,02,18,07,32,00,95.0,,,,,,,,,,,,,,
2019,02,18,07,33,00,82.7,,,,,,,,,,,,,,
2019,02,18,07,34,00,88.8,,,,,,,,,,,,,,
2019,02,18,07,35,00,86.7,,,,,,,,,,,,,,
2019,02,18,07,36,00,112.0,,,,,,,,,,,,,,
2019,02,18,07,37,00,115.4,,,,,,,,,,,,,,
2019,02,18,07,38,00,119.4,,,,,,,,,,,,,,
2019,02,18,07,39,00,114.3,,,,,,,,,,,,,,
2019,02,18,07,40,00,121.9,,,,,,,,,,,,,,
2019,02,18,07,41,00,159.6,,,,,,,,,,,,,,
2019,02,18,07,42,00,163.4,,,,,,,,,,,,,,
2019,02,18,07,43,00,134.8,,,,,,,,,,,,,,
2019,02,18,07,44,00,127.8,,,,,,,,,,,,,,
2019,02,18,07,45,00,126.7,,,,,,,,,,,,,,
2019,02,18,07,46,00,127.2,,,,,,,,,,,,,,
2019,02,18,07,47,00,125.4,,,,,,,,,,,,,,
2019,02,18,07,48,00,100.5,,,,,,,,,,,,,,
2019,02,18,07,49,00,87.3,,,,,,,,,,,,,,
2019,02,18,07,50,00,80.5,,,,,,,,,,,,,,
2019,02,18,07,51,00,81.1,,,,,,,,,,,,,,
2019,02,18,07,52,00,83.7,,,,,,,,,,,,,,
2019,02,18,07,53,00,94.2,,,,,,,,,,,,,,
2019,02,18,07,54,00,82.1,,,,,,,,,,,,,,
2019,02,18,07,55,00,82.5,,,,,,,,,,,,,,
2019,02,18,07,56,00,80.0,,,,,,,,,,,,,,
2019,02,18,07,57,00,92.9,,,,,,,,,,,,,,
2019,02,18,07,58,00,88.5,,,,,,,,,,,,,,
2019,02,18,07,59,00,86.1,,,,,,,,,,,,,,
2019,02,18,08,00,00,83.9,,,,,,,,,,,,,,
2019,02,18,08,01,00,91.8,,,,,,,,,,,,,,
2019,02,18,08,02,00,106.9,,,,,,,,,,,,,,
2019,02,18,08,03,00,104.9,,,,,,,,,,,,,,
2019,02,18,08,04,00,98.0,,,,,,,,,,,,,,
2019,02,18,08,05,00,87.8,,,,,,,,,,,,,,
2019,02,18,08,06,00,82.6,,,,,,,,,,,,,,
2019,02,18,08,07,00,88.4,,,,,,,,,,,,,,
2019,02,18,08,08,00,81.7,,,,,,,,,,,,,,
2019,02,18,08,09,00,87.2,,,,,,,,,,,,,,
2019,02,18,08,10,00,85.0,,,,,,,,,,,,,,
2019,02,18,08,11,00,83.9,,,,,,,,,,,,,,
2019,02,18,08,12,00,96.4,,,,,,,,,,,,,,
2019,02,18,08,13,00,99.5,,,,,,,,,,,,,,
2019,02,18,08,14,00,86.5,,,,,,,,,,,,,,
2019,02,18,08,15,00,87.4,,,,,,,,,,,,,,
2019,02,18,08,16,00,85.0,,,,,,,,,,,,,,
2019,02,18,08,17,00,85.4,,,,,,,,,,,,,,
2019,02,18,08,18,00,81.9,,,,,,,,,,,,,,
2019,02,18,08,19,00,90.6,,,,,,,,,,,,,,
2019,02,18,08,20,00,83.7,,,,,,,,,,,,,,
2019,02,18,08,21,00,84.0,,,,,,,,,,,,,,
2019,02,18,08,22,00,98.2,,,,,,,,,,,,,,
2019,02,18,08,23,00,100.0,,,,,,,,,,,,,,
2019,02,18,08,24,00,101.5,,,,,,,,,,,,,,
2019,02,18,08,25,00,116.8,,,,,,,,,,,,,,
2019,02,18,08,26,00,106.3,,,,,,,,,,,,,,
2019,02,18,08,27,00,116.6,,,,,,,,,,,,,,
2019,02,18,08,28,00,115.2,,,,,,,,,,,,,,
2019,02,18,08,29,00,120.8,,,,,,,,,,,,,,
2019,02,18,08,30,00,127.9,,,,,,,,,,,,,,
2019,02,18,08,31,00,136.7,,,,,,,,,,,,,,
2019,02,18,08,32,00,155.5,,,,,,,,,,,,,,
2019,02,18,08,33,00,159.1,,,,,,,,,,,,,,
2019,02,18,08,34,00,155.9,,,,,,,,,,,,,,
2019,02,18,08,35,00,156.5,,,,,,,,,,,,,,
2019,02,18,08,36,00,153.9,,,,,,,,,,,,,,
2019,02,18,08,37,00,157.1,,,,,,,,,,,,,,
2019,02,18,08,38,00,161.4,,,,,,,,,,,,,,
2019,02,18,08,39,00,163.6,,,,,,,,,,,,,,
2019,02,18,08,40,00,159.2,,,,,,,,,,,,,,
2019,02,18,08,41,00,139.4,,,,,,,,,,,,,,
2019,02,18,08,42,00,125.8,,,,,,,,,,,,,,
2019,02,18,08,43,00,120.7,,,,,,,,,,,,,,
2019,02,18,08,44,00,119.2,,,,,,,,,,,,,,
2019,02,18,08,45,00,109.8,,,,,,,,,,,,,,
2019,02,18,08,46,00,102.5,,,,,,,,,,,,,,
2019,02,18,08,47,00,103.1,,,,,,,,,,,,,,
2019,02,18,08,48,00,101.5,,,,,,,,,,,,,,
2019,02,18,08,49,00,97.9,,,,,,,,,,,,,,
2019,02,18,08,50,00,104.5,,,,,,,,,,,,,,
2019,02,18,08,51,00,118.2,,,,,,,,,,,,,,
2019,02,18,08,52,00,112.5,,,,,,,,,,,,,,
2019,02,18,08,53,00,115.3,,,,,,,,,,,,,,
2019,02,18,08,54,00,110.0,,,,,,,,,,,,,,
2019,02,18,08,55,00,115.5,,,,,,,,,,,,,,
2019,02,18,08,56,00,116.0,,,,,,,,,,,,,,
2019,02,18,08,57,00,112.1,,,,,,,,,,,,,,
2019,02,18,08,58,00,105.8,,,,,,,,,,,,,,
2019,02,18,08,59,00,109.9,,,,,,,,,,,,,,
2019,02,18,09,00,00,106.5,,,,,,,,,,,,,,
2019,02,18,09,01,00,102.5,,,,,,,,,,,,,,
2019,02,18,09,02,00,110.0,,,,,,,,,,,,,,
2019,02,18,09,03,00,110.9,,,,,,,,,,,,,,
2019,02,18,09,04,00,110.8,,,,,,,,,,,,,,
2019,02,18,09,05,00,106.6,,,,,,,,,,,,,,
2019,02,18,09,06,00,106.6,,,,,,,,,,,,,,
2019,02,18,09,07,00,113.2,,,,,,,,,,,,,,
2019,02,18,09,08,00,110.6,,,,,,,,,,,,,,
2019,02,18,09,09,00,111.3,,,,,,,,,,,,,,
2019,02,18,09,10,00,118.9,,,,,,,,,,,,,,
2019,02,18,09,11,00,116.1,,,,,,,,,,,,,,
2019,02,18,09,12,00,118.4,,,,,,,,,,,,,,
2019,02,18,09,13,00,121.2,,,,,,,,,,,,,,
2019,02,18,09,14,00,120.6,,,,,,,,,,,,,,
2019,02,18,09,15,00,123.9,,,,,,,,,,,,,,
2019,02,18,09,16,00,128.9,,,,,,,,,,,,,,
2019,02,18,09,17,00,132.1,,,,,,,,,,,,,,
2019,02,18,09,18,00,133.4,,,,,,,,,,,,,,
2019,02,18,09,19,00,138.3,,,,,,,,,,,,,,
2019,02,18,09,20,00,146.7,,,,,,,,,,,,,,
2019,02,18,09,21,00,148.0,,,,,,,,,,,,,,
2019,02,18,09,22,00,136.7,,,,,,,,,,,,,,
2019,02,18,09,23,00,136.9,,,,,,,,,,,,,,
2019,02,18,09,24,00,143.2,,,,,,,,,,,,,,
2019,02,18,09,25,00,148.9,,,,,,,,,,,,,,
2019,02,18,09,26,00,144.4,,,,,,,,,,,,,,
2019,02,18,09,27,00,146.6,,,,,,,,,,,,,,
2019,02,18,09,28,00,149.4,,,,,,,,,,,,,,
2019,02,18,09,29,00,152.8,,,,,,,,,,,,,,
2019,02,18,09,30,00,159.2,,,,,,,,,,,,,,
2019,02,18,09,31,00,142.1,,,,,,,,,,,,,,
2019,02,18,09,32,00,151.1,,,,,,,,,,,,,,
2019,02,18,09,33,00,169.7,,,,,,,,,,,,,,
2019,02,18,09,34,00,189.4,,,,,,,,,,,,,,
2019,02,18,09,35,00,214.7,,,,,,,,,,,,,,
2019,02,18,09,36,00,204.6,,,,,,,,,,,,,,
2019,02,18,09,37,00,225.8,,,,,,,,,,,,,,
2019,02,18,09,38,00,169.5,,,,,,,,,,,,,,
2019,02,18,09,39,00,184.5,,,,,,,,,,,,,,
2019,02,18,09,40,00,198.6,,,,,,,,,,,,,,
2019,02,18,09,41,00,173.2,,,,,,,,,,,,,,
2019,02,18,09,42,00,191.8,,,,,,,,,,,,,,
2019,02,18,09,43,00,202.0,,,,,,,,,,,,,,
2019,02,18,09,44,00,212.8,,,,,,,,,,,,,,
2019,02,18,09,45,00,236.0,,,,,,,,,,,,,,
2019,02,18,09,46,00,224.8,,,,,,,,,,,,,,
2019,02,18,09,47,00,214.1,,,,,,,,,,,,,,
2019,02,18,09,48,00,188.0,,,,,,,,,,,,,,
2019,02,18,09,49,00,173.1,,,,,,,,,,,,,,
2019,02,18,09,50,00,171.2,,,,,,,,,,,,,,
2019,02,18,09,51,00,168.2,,,,,,,,,,,,,,
2019,02,18,09,52,00,160.1,,,,,,,,,,,,,,
2019,02,18,09,53,00,144.5,,,,,,,,,,,,,,
2019,02,18,09,54,00,142.6,,,,,,,,,,,,,,
2019,02,18,09,55,00,137.5,,,,,,,,,,,,,,
2019,02,18,09,56,00,148.7,,,,,,,,,,,,,,